GOES 17 1 43226U 18022A 21062.65908574 .00000088 00000-0 00000-0 0 9991 2 43226 0.0690 291.5343 0000710 96.4596 233.6766 1.00271692 11045 ATLAS 5 CENTAUR R/B 1 43227U 18022B 21062.30412056 -.00000044 00000-0 00000-0 0 9992 2 43227 8.0414 221.4540 4968995 42.8836 346.5990 1.88629198 20703